[[{"header":{"parameterUnit":"m.s-1","parameterCategory":1,"la1":30.2991,"la2":30.254,"lo1":-89.0895,"lo2":-89.0444,"dy":0.0017,"dx":0.0017,"nx":28,"ny":28,"refTime":"2024-03-11T09:00:00:Z","depth":0,"parameterNumber":2,"parameterNumberName":"U-component_of_WINDS"},"data":[0,0,0,0,0,0,0,0,0,0,0,0,0,0,0,0,0,0,0,0,0,0,0,0,0,0,0,0,0,0,0,0,0,0,0,0,0,0,0,0,0,0,0,0,0,0,0,0,0,0,0,0,0,0,0,0,0,0,-3.8027,-3.8027,0,-3.7992,-3.7991,-3.7991,-3.7863,-3.786,-3.7857,-3.7854,-3.7821,-3.7823,-3.7825,0,0,0,0,0,0,0,0,0,0,0,0,0,-3.7988,-3.7989,-3.8027,-3.8027,-3.8026,-3.7992,-3.7991,-3.7991,-3.7864,-3.786,-3.7856,-3.7853,-3.7821,-3.7823,-3.7825,0,0,0,0,0,0,0,0,0,0,0,0,0,-3.7984,-3.799,-3.8027,-3.7959,-3.7952,-3.7992,-3.7991,-3.7991,-3.7864,-3.786,-3.7856,-3.7851,-3.782,-3.7823,-3.7825,-3.793,0,0,-3.7834,-3.7835,0,0,0,0,0,0,0,0,-3.7985,-3.7986,-3.7969,-3.7963,-3.7956,-3.7927,-3.7965,-3.797,-3.7865,-3.7898,-3.7854,-3.7849,-3.786,-3.7859,-3.7862,-3.7928,-3.7927,-3.7834,-3.7836,-3.7837,-3.7838,0,0,0,0,0,0,0,-3.7985,-3.7987,-3.8013,-3.7969,-3.7961,-3.7931,-3.7925,-3.7966,-3.7904,-3.7895,-3.7885,-3.7883,-3.7856,-3.786,-3.7861,-3.7926,-3.7834,-3.7836,-3.7838,-3.7839,-3.8078,-3.8082,0,0,0,0,0,0,-3.7995,-3.7988,-3.8014,-3.8012,-3.796,-3.7935,-3.7929,-3.7941,-3.7903,-3.7893,-3.7886,-3.7877,-3.7858,-3.7858,-3.7859,-3.798,-3.7837,-3.7839,-3.7841,-3.8073,-3.8079,-3.8084,0,0,0,0,0,0,-3.7994,-3.7998,-3.8016,-3.7997,-3.7997,-3.794,-3.7955,-3.7943,-3.7947,-3.7897,-3.7886,-3.7902,-3.7854,-3.7855,-3.7913,-3.7977,-3.7841,-3.7843,-3.8068,-3.8075,-3.8081,-3.8223,0,0,0,0,0,0,-3.7994,-3.7999,-3.8037,-3.7999,-3.7999,-3.807,-3.7959,-3.7945,-3.7951,-3.7939,-3.7908,-3.7899,-3.7851,-3.791,-3.7916,-3.7979,-3.7845,-3.8062,-3.8071,-3.8079,-3.8212,-3.8234,-3.8252,0,0,0,0,0,-3.7993,-3.8078,-3.804,-3.8044,-3.8045,-3.8074,-3.8074,-3.8015,-3.7957,-3.7996,-3.7964,-3.79,-3.7969,-3.7917,-3.7923,-3.7987,-3.8057,-3.8068,-3.8079,-3.8203,-3.823,-3.8252,0,0,0,0,0,0,-3.8126,-3.8072,-3.8029,-3.8104,-3.8095,-3.8052,-3.8099,-3.8045,-3.8052,-3.804,-3.7968,-3.7962,-3.8031,-3.8014,-3.7957,-3.8087,-3.8003,-3.8015,-3.8096,-3.812,-3.814,-3.8143,-3.7848,0,0,0,0,0,-3.8164,-3.8191,-3.8143,-3.8214,-3.8212,-3.8157,-3.8167,-3.8123,-3.811,-3.8106,-3.8078,-3.8069,-3.8089,-3.8103,-3.8118,-3.8209,-3.8202,-3.8256,-3.8276,-3.8293,-3.8305,-3.8353,-3.8378,-3.8119,-3.8119,-3.8118,0,0,-3.8243,-3.8217,-3.8239,-3.8241,-3.8228,-3.8259,-3.8154,-3.819,-3.8213,-3.8111,-3.8165,-3.8145,-3.813,-3.8205,-3.8237,-3.8194,-3.8375,-3.8306,-3.832,-3.8323,-3.8367,-3.8391,-3.8413,-3.8126,-3.8125,-3.8123,0,0,-3.8403,-3.8386,-3.8444,-3.8434,-3.8416,-3.8379,-3.8393,-3.8359,-3.8342,-3.8394,-3.8319,-3.8345,-3.838,-3.8373,-3.8374,-3.8534,-3.8476,-3.8541,-3.8646,-3.8694,-3.8715,-3.8732,-3.8791,-3.8813,-3.8552,-3.8553,-3.8553,0,-3.8505,-3.8547,-3.8481,-3.8523,-3.8527,-3.8436,-3.8496,-3.8489,-3.8477,-3.8483,-3.8434,-3.8477,-3.846,-3.8534,-3.8573,-3.8576,-3.8592,-3.8544,-3.8717,-3.8734,-3.875,-3.8805,-3.8827,-3.8561,-3.856,-3.8559,-3.8558,0,-3.8673,-3.8703,-3.8753,-3.8744,-3.8753,-3.8804,-3.8748,-3.8765,-3.8721,-3.869,-3.8745,-3.8722,-3.8732,-3.8746,-3.8703,-3.8814,-3.8788,-3.8729,-3.8643,-3.8784,-3.8834,-3.8855,-3.8573,-3.857,-3.8567,-3.8565,0,0,-3.8916,-3.887,-3.889,-3.8885,-3.8859,-3.8882,-3.893,-3.8938,-3.8956,-3.8951,-3.899,-3.9023,-3.8968,-3.897,-3.8926,-3.8968,-3.9098,-3.8904,-3.8902,-3.8942,-3.9221,-3.9267,-3.9292,-3.9059,-3.9063,-3.9066,-3.9223,0,-3.9069,-3.9147,-3.909,-3.9178,-3.9206,-3.9121,-3.9162,-3.9152,-3.9124,-3.9146,-3.9115,-3.914,-3.9065,-3.9066,-3.9104,-3.9074,-3.9153,-3.9062,-3.9097,-3.9099,-3.9105,-3.9319,-3.9366,-3.9516,-3.9242,-3.9246,-3.9248,0,-3.9259,-3.9262,-3.9353,-3.9323,-3.9333,-3.9371,-3.9375,-3.9396,-3.9383,-3.936,-3.9363,-3.9308,-3.9354,-3.9269,-3.9332,-3.9272,-3.9282,-3.927,-3.9275,-3.9277,-3.9183,-3.9328,-3.9562,-3.9585,-3.9278,-3.9276,-3.9274,0,-3.9429,-3.9457,-3.9515,-3.9513,-3.9479,-3.9508,-3.9495,-3.9478,-3.9487,-3.9492,-3.9498,-3.9508,-3.9514,-3.9524,-3.9474,-3.9416,-3.9545,-3.9455,-3.9529,-3.953,-3.956,-3.9559,-3.9801,-3.9565,-3.9565,-3.9565,-3.9564,0,-3.9607,-3.9667,-3.9591,-3.9627,-3.9692,-3.9627,-3.9693,-3.9671,-3.9657,-3.9688,-3.9615,-3.9646,-3.9577,-3.9602,-3.9563,-3.9623,-3.9626,-3.961,-3.9599,-3.9618,-3.962,-3.9625,-3.9614,-3.9571,-3.9569,-3.9568,-3.9567,0,-3.9809,-3.976,-3.9818,-3.9781,-3.9773,-3.9823,-3.9791,-3.9824,-3.9792,-3.9833,-3.9839,-3.9789,-3.9814,-3.9765,-3.9784,-3.9758,-3.9843,-3.9815,-3.9847,-3.984,-3.9917,-3.9911,-4.0171,-4.0203,-3.9946,-3.9948,-3.995,0,-3.9926,-3.997,-3.9937,-3.9953,-3.9944,-3.997,-3.9979,-3.9918,-3.9931,-3.992,-3.9955,-3.9974,-3.9986,-4.0032,-3.9998,-4.0013,-3.9986,-4.0076,-3.9988,-4.0006,-3.999,-3.9988,-3.9993,-4.0095,-4.0098,-4.0101,-4.0103,0,-4.0141,-4.0115,-4.0131,-4.0139,-4.0153,-4.0157,-4.0155,-4.0172,-4.0107,-4.0126,-4.0151,-4.016,-4.018,-4.0201,-4.0208,-4.0196,-4.014,-4.0131,-4.0149,-4.0169,-4.0186,-4.018,-3.9898,-4.0125,-4.0123,-4.0121,-4.012,-4.0119,-4.0304,-4.034,-4.0323,-4.0344,-4.0337,-4.0337,-4.0367,-4.0338,-4.0358,-4.0369,-4.0331,-4.0366,-4.0353,-4.0357,-4.0351,-4.0378,-4.0338,-4.0364,-4.0371,-4.0378,-4.0392,-4.0181,-4.0379,-4.0378,-4.0377,-4.0377,-4.0376,0,-4.0516,-4.0502,-4.0521,-4.0522,-4.0539,-4.0483,-4.0479,-4.0498,-4.0528,-4.0521,-4.0535,-4.0565,-4.0585,-4.0554,-4.0569,-4.0597,-4.0572,-4.0603,-4.0601,-4.06,-4.0426,-4.0409,-4.0624,-4.0624,-4.0623,-4.0623,-4.0623,-4.0623,-4.0629,-4.0687,-4.0659,-4.0713,-4.0698,-4.073,-4.0733,-4.0735,-4.0728,-4.0765,-4.0781,-4.076,-4.0744,-4.0758,-4.0775,-4.0765,-4.0775,-4.0816,-4.0798,-4.0636,-4.0612,-4.0589,-4.0573,-4.0818,-4.0819,-4.097,-4.0971,-4.0972]},{"header":{"parameterUnit":"m.s-1","parameterCategory":1,"la1":30.2991,"la2":30.254,"lo1":-89.0895,"lo2":-89.0444,"dy":0.0017,"dx":0.0017,"nx":28,"ny":28,"refTime":"2024-03-11T09:00:00:Z","depth":0,"parameterNumber":3,"parameterNumberName":"V-component_of_WINDS"},"data":[0,0,0,0,0,0,0,0,0,0,0,0,0,0,0,0,0,0,0,0,0,0,0,0,0,0,0,0,0,0,0,0,0,0,0,0,0,0,0,0,0,0,0,0,0,0,0,0,0,0,0,0,0,0,0,0,0,0,-0.953,-0.9531,0,-0.958,-0.958,-0.9581,-0.9563,-0.9562,-0.956,-0.9559,-0.9612,-0.9614,-0.9616,0,0,0,0,0,0,0,0,0,0,0,0,0,-0.942,-0.9422,-0.953,-0.9531,-0.9531,-0.958,-0.958,-0.9581,-0.9563,-0.9562,-0.956,-0.9559,-0.9611,-0.9614,-0.9617,0,0,0,0,0,0,0,0,0,0,0,0,0,-0.9469,-0.9423,-0.953,-0.9528,-0.9528,-0.9579,-0.958,-0.9581,-0.9563,-0.9561,-0.956,-0.9558,-0.961,-0.9613,-0.9617,-0.9673,0,0,-0.9628,-0.963,0,0,0,0,0,0,0,0,-0.9466,-0.9473,-0.9528,-0.9528,-0.9529,-0.9563,-0.9561,-0.9612,-0.9564,-0.955,-0.9559,-0.9557,-0.9597,-0.9602,-0.9615,-0.9676,-0.9678,-0.9628,-0.9631,-0.9632,-0.9633,0,0,0,0,0,0,0,-0.9462,-0.947,-0.955,-0.9529,-0.9529,-0.9525,-0.953,-0.957,-0.9582,-0.9551,-0.955,-0.9556,-0.9597,-0.9611,-0.9616,-0.9679,-0.9628,-0.9632,-0.9634,-0.9635,-0.9788,-0.979,0,0,0,0,0,0,-0.9459,-0.9468,-0.9548,-0.9551,-0.9492,-0.9528,-0.9534,-0.9554,-0.9582,-0.9584,-0.9557,-0.9555,-0.9606,-0.9611,-0.9617,-0.9685,-0.9632,-0.9636,-0.9638,-0.9786,-0.9788,-0.979,0,0,0,0,0,0,-0.9456,-0.9466,-0.9546,-0.9509,-0.9519,-0.9532,-0.9555,-0.9556,-0.957,-0.9587,-0.9589,-0.957,-0.9605,-0.9612,-0.9659,-0.9687,-0.9637,-0.9641,-0.9784,-0.9787,-0.9789,-0.9822,0,0,0,0,0,0,-0.9453,-0.9465,-0.9487,-0.951,-0.9521,-0.9587,-0.9556,-0.9558,-0.9576,-0.9574,-0.9599,-0.9601,-0.9604,-0.9654,-0.9663,-0.9691,-0.9643,-0.9782,-0.9785,-0.9788,-0.9818,-0.9825,-0.9831,0,0,0,0,0,-0.945,-0.9495,-0.9488,-0.9498,-0.9548,-0.9589,-0.9595,-0.9597,-0.9578,-0.96,-0.9611,-0.96,-0.9682,-0.9659,-0.9669,-0.9699,-0.978,-0.9784,-0.9788,-0.9815,-0.9824,-0.9831,0,0,0,0,0,0,-0.9475,-0.9498,-0.9491,-0.9544,-0.9565,-0.9586,-0.9614,-0.9606,-0.9633,-0.9629,-0.963,-0.9636,-0.9685,-0.9696,-0.967,-0.9754,-0.9728,-0.9735,-0.9745,-0.9754,-0.976,-0.9757,-0.9646,0,0,0,0,0,-0.9487,-0.9518,-0.9536,-0.9581,-0.9592,-0.9601,-0.9619,-0.9618,-0.9639,-0.9648,-0.9662,-0.9684,-0.9714,-0.9734,-0.9763,-0.9819,-0.9824,-0.9844,-0.9851,-0.9856,-0.9862,-0.9893,-0.9902,-0.9804,-0.9804,-0.9804,0,0,-0.9512,-0.9528,-0.9548,-0.9587,-0.9603,-0.9635,-0.9608,-0.9644,-0.9668,-0.9654,-0.9699,-0.971,-0.9734,-0.9785,-0.9809,-0.9797,-0.989,-0.9861,-0.9865,-0.9869,-0.9898,-0.9907,-0.9915,-0.9807,-0.9806,-0.9806,0,0,-0.9575,-0.959,-0.9629,-0.9645,-0.9669,-0.9675,-0.9684,-0.9706,-0.9712,-0.9757,-0.9747,-0.9776,-0.9828,-0.9846,-0.9861,-0.9929,-0.992,-0.9938,-0.9973,-1.0002,-1.001,-1.0017,-1.0042,-1.005,-0.9943,-0.9944,-0.9944,0,-0.9603,-0.9651,-0.9651,-0.9687,-0.9704,-0.9692,-0.9732,-0.9748,-0.978,-0.9792,-0.9777,-0.9842,-0.9858,-0.9913,-0.993,-0.9943,-0.9954,-0.9936,-1.0009,-1.0016,-1.0022,-1.0046,-1.0055,-0.9946,-0.9945,-0.9945,-0.9945,0,-0.9685,-0.9719,-0.9748,-0.9779,-0.9799,-0.9837,-0.9842,-0.9863,-0.986,-0.9867,-0.9913,-0.993,-0.9963,-0.9975,-0.9973,-1.0031,-1.0022,-1.0008,-0.9982,-1.0033,-1.0056,-1.0065,-0.9949,-0.9948,-0.9947,-0.9947,0,0,-0.9767,-0.9796,-0.9807,-0.9821,-0.9845,-0.9871,-0.9908,-0.9939,-0.9957,-0.9979,-1.0011,-1.0054,-1.0041,-1.0059,-1.0058,-1.0084,-1.0137,-1.0067,-1.0067,-1.008,-1.0202,-1.0214,-1.0224,-1.0131,-1.0132,-1.0134,-1.02,0,-0.9832,-0.9898,-0.9897,-0.9958,-0.9988,-0.9976,-1.0008,-1.0027,-1.0034,-1.0061,-1.0069,-1.01,-1.008,-1.0091,-1.0115,-1.0125,-1.0162,-1.012,-1.0161,-1.0162,-1.0157,-1.0235,-1.0248,-1.031,-1.0209,-1.021,-1.0211,0,-0.9918,-0.9942,-1.0005,-1.0025,-1.0038,-1.0067,-1.0095,-1.0121,-1.0141,-1.0144,-1.0164,-1.0159,-1.0196,-1.0168,-1.022,-1.0192,-1.0208,-1.0215,-1.0217,-1.0223,-1.0191,-1.0244,-1.033,-1.034,-1.0225,-1.0224,-1.0223,0,-0.9972,-1.0021,-1.0065,-1.0077,-1.01,-1.0121,-1.0132,-1.0151,-1.0169,-1.0193,-1.0205,-1.0233,-1.0249,-1.0271,-1.0274,-1.0253,-1.0327,-1.0299,-1.0331,-1.0331,-1.0349,-1.0348,-1.044,-1.0357,-1.0357,-1.0357,-1.0356,0,-1.0046,-1.0085,-1.009,-1.0117,-1.016,-1.0159,-1.0202,-1.0211,-1.0228,-1.0257,-1.0247,-1.0275,-1.0276,-1.0304,-1.0306,-1.0349,-1.0356,-1.036,-1.0361,-1.0362,-1.0362,-1.0374,-1.037,-1.0359,-1.0359,-1.0358,-1.0358,0,-1.0115,-1.0119,-1.0167,-1.0185,-1.019,-1.0222,-1.0237,-1.0263,-1.0268,-1.0305,-1.0313,-1.0322,-1.0354,-1.0359,-1.0397,-1.0398,-1.045,-1.0445,-1.0443,-1.0443,-1.0476,-1.0473,-1.058,-1.0594,-1.0501,-1.0502,-1.0502,0,-1.0163,-1.0193,-1.0213,-1.0232,-1.0244,-1.0274,-1.0292,-1.0291,-1.0311,-1.0336,-1.0359,-1.039,-1.0415,-1.0467,-1.0477,-1.0506,-1.0502,-1.0538,-1.0507,-1.0507,-1.0504,-1.0503,-1.0506,-1.0544,-1.0545,-1.0546,-1.0547,0,-1.0247,-1.0247,-1.0274,-1.0301,-1.0323,-1.0345,-1.0365,-1.038,-1.0382,-1.0405,-1.0437,-1.0457,-1.0495,-1.0526,-1.0554,-1.0565,-1.0557,-1.0556,-1.0565,-1.0568,-1.0566,-1.0568,-1.0461,-1.0554,-1.0553,-1.0553,-1.0553,-1.0552,-1.0307,-1.0333,-1.0352,-1.0382,-1.0397,-1.0415,-1.0441,-1.0449,-1.0476,-1.0507,-1.0504,-1.054,-1.0559,-1.0596,-1.0609,-1.0637,-1.0626,-1.0639,-1.0643,-1.0646,-1.065,-1.056,-1.0642,-1.0642,-1.0642,-1.0642,-1.0642,0,-1.0391,-1.0402,-1.043,-1.0458,-1.0482,-1.047,-1.0492,-1.0512,-1.0544,-1.0562,-1.0586,-1.0624,-1.0653,-1.0665,-1.0694,-1.0715,-1.0711,-1.0722,-1.0722,-1.0724,-1.0658,-1.0648,-1.0724,-1.0724,-1.0724,-1.0724,-1.0724,-1.0724,-1.0438,-1.0482,-1.0484,-1.0534,-1.0545,-1.058,-1.0593,-1.0611,-1.0625,-1.0667,-1.0692,-1.0698,-1.0714,-1.0744,-1.0771,-1.0773,-1.0785,-1.0798,-1.0799,-1.0737,-1.0729,-1.0721,-1.0711,-1.08,-1.08,-1.0863,-1.0864,-1.0864]}]]